TimeCDT,TemperatureF,Dew PointF,Humidity,Sea Level PressureIn,VisibilityMPH,Wind Direction,Wind SpeedMPH,Gust SpeedMPH,PrecipitationIn,Events,Conditions,WindDirDegrees,DateUTC
12:15 AM,82.6,52.3,35,30.04,10.0,South,11.5,-,N/A,,Clear,170,2013-07-09 05:15:00
12:35 AM,81.9,52.3,36,30.04,10.0,South,10.4,-,N/A,,Clear,170,2013-07-09 05:35:00
12:55 AM,81.5,52.7,37,30.04,10.0,South,11.5,-,N/A,,Clear,170,2013-07-09 05:55:00
1:15 AM,81.5,53.4,38,30.04,10.0,South,12.7,-,N/A,,Clear,170,2013-07-09 06:15:00
1:35 AM,81.5,54.5,39,30.04,10.0,South,12.7,-,N/A,,Clear,170,2013-07-09 06:35:00
1:55 AM,81.5,55.4,41,30.04,10.0,South,13.8,-,N/A,,Clear,180,2013-07-09 06:55:00
2:15 AM,81.5,55.9,41,30.05,10.0,South,10.4,-,N/A,,Clear,180,2013-07-09 07:15:00
2:35 AM,81.1,56.5,43,30.05,10.0,South,10.4,-,N/A,,Clear,180,2013-07-09 07:35:00
2:55 AM,81.1,56.8,43,30.05,10.0,South,11.5,-,N/A,,Clear,180,2013-07-09 07:55:00
3:15 AM,80.6,57.2,45,30.06,10.0,South,9.2,-,N/A,,Clear,180,2013-07-09 08:15:00
3:35 AM,80.8,57.6,45,30.05,10.0,South,11.5,-,N/A,,Clear,190,2013-07-09 08:35:00
3:55 AM,79.9,57.6,46,30.05,10.0,South,9.2,-,N/A,,Clear,190,2013-07-09 08:55:00
4:15 AM,78.8,57.6,48,30.05,10.0,South,9.2,-,N/A,,Clear,180,2013-07-09 09:15:00
4:35 AM,77.4,57.6,50,30.05,10.0,South,8.1,-,N/A,,Clear,190,2013-07-09 09:35:00
4:55 AM,76.3,57.6,52,30.04,10.0,South,9.2,-,N/A,,Clear,190,2013-07-09 09:55:00
5:15 AM,76.1,57.7,53,30.04,10.0,South,9.2,-,N/A,,Clear,190,2013-07-09 10:15:00
5:35 AM,76.1,57.7,53,30.05,10.0,South,10.4,-,N/A,,Clear,190,2013-07-09 10:35:00
5:55 AM,76.3,57.6,52,30.05,10.0,South,10.4,-,N/A,,Clear,190,2013-07-09 10:55:00
6:15 AM,75.9,57.7,53,30.05,10.0,South,9.2,-,N/A,,Clear,190,2013-07-09 11:15:00
6:35 AM,75.2,57.6,54,30.06,10.0,SSW,8.1,-,N/A,,Clear,200,2013-07-09 11:35:00
6:55 AM,75.6,57.7,54,30.06,10.0,SSW,9.2,-,N/A,,Clear,200,2013-07-09 11:55:00
7:15 AM,76.3,57.9,53,30.06,10.0,SSW,10.4,-,N/A,,Clear,200,2013-07-09 12:15:00
7:35 AM,78.1,58.1,50,30.06,10.0,SSW,11.5,-,N/A,,Clear,210,2013-07-09 12:35:00
7:55 AM,80.2,57.7,46,30.06,10.0,SSW,15.0,19.6,N/A,,Clear,210,2013-07-09 12:55:00
8:15 AM,82.4,57.6,43,30.07,10.0,SW,18.4,-,N/A,,Clear,220,2013-07-09 13:15:00
8:35 AM,84.0,57.4,40,30.08,10.0,SW,20.7,27.6,N/A,,Clear,220,2013-07-09 13:35:00
8:55 AM,85.1,57.7,39,30.08,10.0,SW,21.9,25.3,N/A,,Clear,230,2013-07-09 13:55:00
9:15 AM,87.1,57.6,37,30.08,10.0,SW,26.5,32.2,N/A,,Clear,230,2013-07-09 14:15:00
9:35 AM,88.9,57.2,34,30.09,10.0,WSW,24.2,31.1,N/A,,Clear,240,2013-07-09 14:35:00
9:55 AM,90.0,57.0,33,30.09,10.0,WSW,24.2,-,N/A,,Clear,240,2013-07-09 14:55:00
10:15 AM,91.0,57.2,32,30.09,10.0,SW,23.0,31.1,N/A,,Clear,230,2013-07-09 15:15:00
10:35 AM,92.7,56.8,30,30.08,10.0,WSW,24.2,28.8,N/A,,Clear,240,2013-07-09 15:35:00
10:55 AM,93.7,56.8,29,30.09,10.0,SW,19.6,25.3,N/A,,Clear,230,2013-07-09 15:55:00
11:15 AM,94.8,56.8,28,30.09,10.0,SW,18.4,25.3,N/A,,Clear,230,2013-07-09 16:15:00
11:35 AM,96.4,57.0,27,30.09,10.0,SW,16.1,23.0,N/A,,Clear,230,2013-07-09 16:35:00
11:55 AM,97.2,56.3,25,30.09,10.0,WSW,19.6,24.2,N/A,,Clear,250,2013-07-09 16:55:00
12:15 PM,97.7,55.9,25,30.09,10.0,SW,18.4,24.2,N/A,,Clear,230,2013-07-09 17:15:00
12:35 PM,98.6,55.4,24,30.08,10.0,SSW,20.7,24.2,N/A,,Clear,210,2013-07-09 17:35:00
12:55 PM,98.8,54.5,23,30.08,10.0,SW,19.6,25.3,N/A,,Clear,220,2013-07-09 17:55:00
1:15 PM,99.5,53.6,21,30.07,10.0,SW,16.1,21.9,N/A,,Clear,230,2013-07-09 18:15:00
1:35 PM,100.4,54.1,21,30.06,10.0,WSW,12.7,25.3,N/A,,Clear,240,2013-07-09 18:35:00
1:55 PM,100.6,53.8,21,30.05,10.0,South,12.7,24.2,N/A,,Clear,190,2013-07-09 18:55:00
2:15 PM,100.9,52.3,20,30.05,10.0,SW,18.4,25.3,N/A,,Clear,220,2013-07-09 19:15:00
2:35 PM,101.3,52.2,19,30.05,10.0,SW,13.8,24.2,N/A,,Clear,220,2013-07-09 19:35:00
2:55 PM,101.7,53.2,20,30.04,10.0,WSW,13.8,23.0,N/A,,Clear,240,2013-07-09 19:55:00
3:15 PM,102.0,51.8,19,30.04,10.0,SW,12.7,21.9,N/A,,Clear,230,2013-07-09 20:15:00
3:35 PM,101.8,52.2,19,30.03,10.0,SW,10.4,19.6,N/A,,Scattered Clouds,220,2013-07-09 20:35:00
3:55 PM,102.6,52.2,19,30.03,10.0,SSW,15.0,23.0,N/A,,Scattered Clouds,210,2013-07-09 20:55:00
4:15 PM,102.0,51.8,19,30.02,10.0,SW,10.4,21.9,N/A,,Clear,220,2013-07-09 21:15:00
4:35 PM,102.6,51.4,18,30.01,10.0,SSW,8.1,17.3,N/A,,Clear,200,2013-07-09 21:35:00
4:55 PM,103.3,51.1,17,30.00,10.0,SSW,12.7,23.0,N/A,,Clear,210,2013-07-09 21:55:00
5:15 PM,103.1,51.8,18,29.99,10.0,SSW,15.0,19.6,N/A,,Clear,200,2013-07-09 22:15:00
5:35 PM,102.0,52.0,19,29.99,10.0,South,16.1,-,N/A,,Scattered Clouds,190,2013-07-09 22:35:00
5:55 PM,102.2,52.0,19,29.98,10.0,SSW,12.7,23.0,N/A,,Clear,200,2013-07-09 22:55:00
6:15 PM,102.0,52.5,19,29.97,10.0,South,16.1,23.0,N/A,,Clear,190,2013-07-09 23:15:00
6:35 PM,101.5,52.0,19,29.98,10.0,South,12.7,-,N/A,,Clear,190,2013-07-09 23:35:00
6:55 PM,100.9,52.5,20,29.98,10.0,South,13.8,-,N/A,,Clear,180,2013-07-09 23:55:00
7:15 PM,100.4,52.5,20,29.99,10.0,SSW,10.4,-,N/A,,Scattered Clouds,200,2013-07-10 00:15:00
7:35 PM,99.7,52.3,20,29.98,10.0,South,16.1,20.7,N/A,,Clear,190,2013-07-10 00:35:00
7:55 PM,97.7,52.7,22,29.99,10.0,South,13.8,-,N/A,,Clear,190,2013-07-10 00:55:00
8:15 PM,96.4,52.7,23,29.99,10.0,South,15.0,-,N/A,,Clear,190,2013-07-10 01:15:00
8:35 PM,95.0,52.7,24,29.99,10.0,South,12.7,-,N/A,,Clear,190,2013-07-10 01:35:00
8:55 PM,93.6,53.1,25,30.00,10.0,South,9.2,-,N/A,,Clear,180,2013-07-10 01:55:00
9:15 PM,91.2,53.1,27,30.01,10.0,South,8.1,-,N/A,,Clear,170,2013-07-10 02:15:00
9:35 PM,89.8,53.6,29,30.02,10.0,South,9.2,-,N/A,,Clear,170,2013-07-10 02:35:00
9:55 PM,88.7,53.6,30,30.03,10.0,South,9.2,-,N/A,,Clear,170,2013-07-10 02:55:00
10:15 PM,88.0,53.6,31,30.03,10.0,South,9.2,-,N/A,,Clear,170,2013-07-10 03:15:00
10:35 PM,87.3,53.6,32,30.04,10.0,South,9.2,-,N/A,,Clear,180,2013-07-10 03:35:00
10:55 PM,87.1,53.8,32,30.04,10.0,South,9.2,-,N/A,,Clear,180,2013-07-10 03:55:00
11:15 PM,86.5,53.6,32,30.05,10.0,South,9.2,-,N/A,,Clear,190,2013-07-10 04:15:00
11:35 PM,86.0,53.6,33,30.05,10.0,South,8.1,-,N/A,,Clear,190,2013-07-10 04:35:00
11:55 PM,85.5,53.6,33,30.06,10.0,South,8.1,-,N/A,,Clear,190,2013-07-10 04:55:00